Change the Weather History Date:

Tuesday, September 11, 2007

  Actual Average Record
Temperature  
Mean Temperature 71 °F 74 °F  
Max Temperature 79 °F 85 °F 100 °F (1953)
Min Temperature 63 °F 63 °F 42 °F (1976)
Degree Days  
Heating Degree Days 0 0  
Month to date heating degree days 0 0  
Since 1 July heating degree days 0 0  
Cooling Degree Days 6 9  
Month to date cooling degree days 157 116  
Year to date cooling degree days 2042 1662  
Growing Degree Days 22 (Base 50)    
Moisture  
Dew Point 62 °F    
Average Humidity 66    
Maximum Humidity 87    
Minimum Humidity 45    
Precipitation  
Precipitation T in 0.11 in 4.90 in (1965)
Month to date precipitation 3.34 1.11  
Year to date precipitation 28.37 32.22  
Snow  
Snow 0.00 in 0.00 in - ()
Month to date snowfall 0.0  
Since 1 July snowfall 0.0  
Since 1 September snowfall 0.0  
Snow Depth -    
Sea Level Pressure  
Sea Level Pressure 30.00 in    
Wind  
Wind Speed 7 mph (NNW)    
Max Wind Speed 15 mph    
Max Gust Speed 20 mph    
Visibility 10 miles    
Events      
T = Trace of Precipitation, MM = Missing Value Source: NWS Daily Summary

Daily Weather History Graph

Daily Weather History Graph

Search for Another Location

Airport or City:

Trip Planner

Search our weather history database for the weather conditions in past years. The results will help you decide how hot, cold, wet, or windy it might be!

Date:

Astronomy

Sep. 11, 2007 Rise Set
Actual Time 6:41 AM CDT 7:16 PM CDT
Civil Twilight 6:16 AM CDT 7:41 PM CDT
Nautical Twilight 5:45 AM CDT 8:12 PM CDT
Astronomical Twilight 5:14 AM CDT 8:42 PM CDT
Moon 6:45 AM CDT (9/11) 7:18 PM CDT (9/11)
Length of Visible Light 13h 25m
Length of Day
12h 34m
New Moon, 0% of the Moon is Illuminated
Sep 11
New Moon
Sep 19
First Quarter
Sep 26
Full
Oct 3
Last Quarter
Oct 11
New

Hourly Weather History & Observations

Time (CDT) Temp. Dew Point Humidity Pressure Visibility Wind Dir Wind Speed Gust Speed Precip Events Conditions
12:53 AM 77.0 °F 73.9 °F 90% 29.92 in 9.0 mi West 4.6 mph - N/A   Overcast
1:05 AM 77.0 °F 73.4 °F 89% 29.93 in 9.0 mi West 3.5 mph - N/A   Overcast
1:50 AM 75.2 °F 71.6 °F 89% 29.92 in 10.0 mi North 12.7 mph 17.3 mph 0.00 in   Overcast
1:53 AM 75.0 °F 71.1 °F 87% 29.91 in 10.0 mi North 10.4 mph 17.3 mph 0.00 in   Overcast
2:53 AM 73.0 °F 69.1 °F 87% 29.92 in 10.0 mi North 10.4 mph - N/A   Overcast
3:35 AM 71.6 °F 66.2 °F 83% 29.95 in 10.0 mi North 10.4 mph - 0.00 in   Overcast
3:53 AM 71.1 °F 66.9 °F 87% 29.94 in 10.0 mi North 10.4 mph 19.6 mph 0.00 in   Overcast
4:05 AM 71.6 °F 66.2 °F 83% 29.95 in 10.0 mi North 8.1 mph - N/A   Overcast
4:15 AM 69.8 °F 66.2 °F 88% 29.95 in 10.0 mi NNW 9.2 mph - N/A   Overcast
4:53 AM 70.0 °F 64.9 °F 84% 29.96 in 10.0 mi NNW 9.2 mph - N/A   Overcast
5:53 AM 70.0 °F 64.9 °F 84% 29.97 in 10.0 mi Variable 5.8 mph - N/A   Overcast
6:01 AM 69.8 °F 64.4 °F 83% 29.98 in 10.0 mi North 6.9 mph - N/A   Overcast
6:53 AM 68.0 °F 63.0 °F 84% 29.99 in 10.0 mi North 10.4 mph - N/A   Overcast
7:53 AM 66.9 °F 62.1 °F 84% 30.02 in 10.0 mi Variable 5.8 mph - N/A   Overcast
8:53 AM 66.0 °F 60.1 °F 81% 30.04 in 10.0 mi North 8.1 mph - N/A   Overcast
9:53 AM 66.9 °F 57.9 °F 73% 30.05 in 10.0 mi North 10.4 mph - N/A   Overcast
10:53 AM 66.9 °F 57.9 °F 73% 30.07 in 10.0 mi NNW 10.4 mph - N/A   Overcast
11:53 AM 66.9 °F 57.9 °F 73% 30.07 in 10.0 mi NW 10.4 mph - N/A   Overcast
12:53 PM 71.1 °F 57.9 °F 63% 30.06 in 10.0 mi Variable 4.6 mph - N/A   Mostly Cloudy
1:08 PM 71.6 °F 57.2 °F 60% 30.06 in 10.0 mi Variable 6.9 mph - N/A   Partly Cloudy
1:53 PM 75.0 °F 57.9 °F 55% 30.04 in 10.0 mi NNW 8.1 mph - N/A   Partly Cloudy
2:53 PM 77.0 °F 57.9 °F 52% 30.02 in 10.0 mi North 10.4 mph - N/A   Clear
3:53 PM 78.1 °F 57.9 °F 50% 30.01 in 10.0 mi NW 9.2 mph - N/A   Clear
4:53 PM 79.0 °F 57.9 °F 48% 30.01 in 10.0 mi NNW 6.9 mph - N/A   Clear
5:53 PM 78.1 °F 55.9 °F 46% 30.01 in 10.0 mi WNW 5.8 mph - N/A   Clear
6:53 PM 75.9 °F 57.9 °F 54% 30.01 in 10.0 mi Calm Calm - N/A   Clear
7:53 PM 68.0 °F 61.0 °F 78% 30.03 in 10.0 mi WNW 3.5 mph - N/A   Clear
8:53 PM 66.9 °F 60.1 °F 79% 30.04 in 10.0 mi NNW 3.5 mph - N/A   Clear
9:53 PM 64.9 °F 59.0 °F 81% 30.06 in 10.0 mi NW 4.6 mph - N/A   Clear
10:53 PM 66.9 °F 55.9 °F 68% 30.06 in 10.0 mi NNW 4.6 mph - N/A   Clear
11:53 PM 63.0 °F 57.0 °F 81% 30.06 in 10.0 mi NNW 3.5 mph - N/A   Clear